Skip Page Navigation
NASA JPL Caltech
NASA Logo - Jet Propulsion Laboratory + View the NASA Portal
+ Near-Earth Object (NEO) Program
Search JPL
JPL Home Earth Solar System Stars & Galaxies Technology
JPL Solar System Dynamics
BODIES ORBITS EPHEMERIDES TOOLS PHYSICAL DATA DISCOVERY FAQ SITE MAP
JPL Small-Body Database Browser
Search: [ help ]  
48588 Raschroder (1994 RP11)
Classification: Main-belt Asteroid          SPK-ID: 2048588
Ephemeris | Orbit Diagram | Orbital Elements | Physical Parameters | Discovery Circumstances ]

[ show orbit diagram ]
Orbital Elements at Epoch 2456400.5 (2013-Apr-18.0) TDB
Reference: MPO139109 (heliocentric ecliptic J2000)
 Element Value Uncertainty (1-sigma)   Units 
e 0.1456044 n/a  
a 2.3874934 n/a AU
q 2.0398639 n/a AU
i 5.73172 n/a deg
node 251.57509 n/a deg
peri 109.15155 n/a deg
M 9.04758 n/a deg
tp 2456366.6357376
(2013-Mar-15.13573760)
n/a JED
period 1347.4469922
3.69
n/a
n/a
d
yr
n 0.26717192 n/a deg/d
Q 2.7351229 n/a AU
  Orbit Determination Parameters
   # obs. used (total)      241  
   first obs. used      1991-??-??  
   last obs. used      2008-05-12  
   # oppositions      10  
   planetary ephem.      DE403  
   condition code      1  
   fit RMS      0.56  
   data source      MPC:mpn  
   producer      MPCW  

Additional Information
 T_jup = 3.513 

Ephemeris | Orbit Diagram | Orbital Elements | Physical Parameters | Discovery Circumstances ]

Physical Parameter Table
Parameter Symbol Value Units Sigma Reference Notes
absolute magnitude H 15.4 mag n/a MPO139109  

48588 Raschröder           Discovered 1994 Sept. 2 by F. Börngen at Tautenburg.
German Rudolf Alexander Schröder (1878-1962) was an architect, but he became known as a poet, essayist and translator. The complete edition of his work contains eight volumes, including numerous collections of verse. He revived the Protestant chorale and is cofounder of the "Insel-Verlag".
NOTE: some special characters may not display properly (any characters within {} are an attempt to place the proper accent above a character)
Reference: 20030501/MPCPages.arcLast Updated: 2003-10-02

Alternate Designations
 1994 RP11 = 1998 WO21 
Ephemeris | Orbit Diagram | Orbital Elements | Physical Parameters | Discovery Circumstances ]
ABOUT SSD CREDITS/AWARDS PRIVACY/COPYRIGHT GLOSSARY LINKS
FirstGov 2013-May-26 07:17 UT
(server date/time)  
NASA Home Page
Site Manager:   Donald K. Yeomans
Webmaster  Alan B. Chamberlin